This is the latest recevied weather packets stored in our database for station/object ac2ev. If no packets are shown the sender has not sent any weather packets the latest 10 day(s).
| Time | Temp. | Humidity | Pressure | Rain* | Wind** | Luminosity | Snow |
|---|---|---|---|---|---|---|---|
| 1777009831 | 7.78° C | 71% | 1011.3 hPa | 0 mm | - | - | - |
| 1777009575 | 7.78° C | 70% | 1011.3 hPa | 0 mm | - | - | - |
| 1777009232 | 7.78° C | 69% | 1011.2 hPa | 0 mm | - | - | - |
| 1777008931 | 8.33° C | 69% | 1011.2 hPa | 0 mm | - | - | - |
| 1777008631 | 8.33° C | 67% | 1011.3 hPa | 0 mm | - | - | - |
| 1777008332 | 8.33° C | 69% | 1011.3 hPa | 0 mm | - | - | - |
| 1777008031 | 8.33° C | 68% | 1011.4 hPa | 0 mm | - | - | - |
| 1777007732 | 8.33° C | 67% | 1011.4 hPa | 0 mm | - | - | - |
| 1777007431 | 8.33° C | 67% | 1011.3 hPa | 0 mm | - | - | - |
| 1777007131 | 8.33° C | 65% | 1011.2 hPa | 0 mm | - | - | - |
| 1777006831 | 8.33° C | 65% | 1011.2 hPa | 0 mm | - | - | - |
| 1777006530 | 8.33° C | 66% | 1011.2 hPa | 0 mm | - | - | - |
| 1777006231 | 8.33° C | 65% | 1011.1 hPa | 0 mm | - | - | - |
| 1777005930 | 8.33° C | 64% | 1011.2 hPa | 0 mm | - | - | - |
| 1777005625 | 8.33° C | 65% | 1011.4 hPa | 0 mm | - | - | - |
| 1777005326 | 8.33° C | 65% | 1011.3 hPa | 0 mm | - | - | - |
| 1777005026 | 8.89° C | 66% | 1011.3 hPa | 0 mm | - | - | - |
| 1777004726 | 8.89° C | 63% | 1011.3 hPa | 0 mm | - | - | - |
| 1777004427 | 8.89° C | 62% | 1011.4 hPa | 0 mm | - | - | - |
| 1777004126 | 8.89° C | 61% | 1011.5 hPa | 0 mm | - | - | - |
| 1777003826 | 9.44° C | 62% | 1011.6 hPa | 0 mm | - | - | - |
| 1777003526 | 10° C | 59% | 1011.5 hPa | 0 mm | - | - | - |
| 1777003225 | 10.56° C | 65% | 1011.4 hPa | 0 mm | - | - | - |
| 1777002971 | 10° C | 69% | 1011.4 hPa | 0 mm | - | - | - |
| 1777002624 | 10° C | 70% | 1011.3 hPa | 0 mm | - | - | - |
* Rain latest hour (hover to see other rain measurements)
** Current wind speed in m/s (hover to see current wind gust speed)